Regional Weather Roundup
Issued by NWS

Home | Current Version | Previous Version | Graphics & Text | Print | Product List | Glossary On
Versions: 1 2 3 4 5 6 7 8 9 10 11 12 13 14 15 16 17 18 19 20 21 22 23 24 25 26 27 28 29 30 31 32 33 34 35 36 37 38 39 40 41 42 43 44 45 46 47 48 49 50
000
ASUS44 KMEG 270510
RWRTN
TENNESSEE HOURLY STATE WEATHER ROUNDUP
NATIONAL WEATHER SERVICE MEMPHIS TN
1100 PM CST THU FEB 26 2015

TNZ002-004-019-021-049-052-054-088>092-270600-
WEST TENNESSEE

CITY           SKY/WX    TMP DP  RH WIND       PRES   REMARKS
MEMPHIS INTL   MOCLDY    27  14  59 N14       30.42R WCI  15
NWS MEMPHIS      N/A     25 N/A N/A MISG        N/A
JACKSON        CLOUDY    26  16  65 N17       30.40R WCI  13
DYERSBURG      CLEAR     23   3  42 N12G17    30.45R WCI  12
UNION CITY     CLEAR     19  14  79 N12       30.42S WCI   7
PARIS          CLOUDY    21  16  79 N7        30.40R WCI  13
LEXINGTON      CLOUDY    27  19  74 N10       30.35R WCI  17
SAVANNAH       CLOUDY    28  21  74 N9        30.35S WCI  20
$$

TNZ008-025-027-028-033-062-065-066-270600-
NORTH MIDDLE TENNESSEE

CITY           SKY/WX    TMP DP  RH WIND       PRES   REMARKS
NASHVILLE      CLOUDY    27  18  69 N8G22     30.35R WCI  19
CLARKSVILLE    CLEAR     22  16  78 N8        30.39R WCI  12
SMYRNA         CLOUDY    27  19  71 N12       30.35R WCI  17
COOKEVILLE     MOCLDY    28  23  80 N7        30.25S WCI  21
CROSSVILLE     CLOUDY    28  20  71 NW8       30.20R WCI  20
$$

TNZ061-075-076-078-094-096-097-270600-
SOUTH MIDDLE TENNESSEE

CITY           SKY/WX    TMP DP  RH WIND       PRES   REMARKS
FAYETTEVILLE   MOCLDY    28  21  74 N12         N/A  WCI  18
TULLAHOMA      CLOUDY    27  21  80 N17       30.26S WCI  14
WINCHESTER     CLOUDY    28  23  80 N7        30.27S WCI  21
MCMINNVILLE    MOCLDY    28  23  80 NW10      30.26S WCI  19
COLUMBIA       CLOUDY    27  27 100 N10       30.31R WCI  17
SHELBYVILLE    CLOUDY    28  21  74 N15       30.30S WCI  17
$$

TNZ017-018-042-046-047-270600-
NORTHEAST TENNESSEE

CITY           SKY/WX    TMP DP  RH WIND       PRES   REMARKS
TRI CITIES     PTCLDY    28  27  96 CALM      30.16R FOG
ELIZABETHTON   CLOUDY    30  28  93 CALM      30.15R
$$

TNZ012-013-036-069-073-074-270600-
CENTRAL EAST TENNESSEE

CITY           SKY/WX    TMP DP  RH WIND       PRES   REMARKS
KNOXVILLE      MOCLDY    31  29  92 CALM      30.20R
OAK RIDGE      CLOUDY    34  24  67 VRB3      30.22R
GATLINBURG     CLOUDY    28  28 100 CALM      30.18S
MORRISTOWN     CLOUDY    30  28  93 CALM      30.18S
$$

TNZ083-085-099-270600-
SOUTHEAST TENNESSEE

CITY           SKY/WX    TMP DP  RH WIND       PRES   REMARKS
CHATTANOOGA    CLEAR     33  25  72 N5        30.24R WCI  29
$$

SKY/WX REPORTED AS FAIR MEANS FEW OR NO CLOUDS BELOW
12 THOUSAND FEET.




USA.gov is the U.S. government's official web portal to all federal, state and local government web resources and services.